Regional Weather Roundup
Issued by NWS Charleston, SC

Current Version | Previous Version | Graphics & Text | Print | Product List | Glossary On
Versions: 1 2 3 4 5 6 7 8 9 10 11 12 13 14 15 16 17 18 19 20 21 22 23 24 25 26 27 28 29 30 31 32 33 34 35 36 37 38 39 40 41 42 43 44 45 46 47 48 49 50
000 ASUS42 KCHS 021527 RWRCHS REGIONAL WEATHER ROUNDUP NATIONAL WEATHER SERVICE CHARLESTON SC 1100 AM EDT SUN AUG 02 2015 NOTE: "FAIR" INDICATES FEW OR NO CLOUDS BELOW 12,000 FEET WITH NO SIGNIFICANT WEATHER AND/OR OBSTRUCTIONS TO VISIBILITY. NOT ALL STATIONS ARE QUALITY CONTROLLED BY THE NATIONAL WEATHER SERVICE. USE DATA WITH CAUTION...ESPECIALLY DEWPOINT OBSERVATIONS. SCZ027-030-031-034>040-042>050-021600- ...SOUTHEAST SOUTH CAROLINA... CITY SKY/WX TMP DP RH WIND PRES REMARKS N CHARLESTON PTSUNNY 85 74 69 SE5 29.94S HX 92 WATERFRONT PRK N/A 84 77 79 E6 29.92R HX 94 MOUNT PLEASANT FAIR 84 73 70 E3 29.95S HX 91 JOHNS ISLAND PTSUNNY 84 77 79 SE5 29.94S HX 94 PINOPOLIS NOT AVBL MONCKS CORNER CLOUDY 86 75 70 N8 29.95S HX 95 SUMMERVILLE PTSUNNY 86 77 74 E3 29.95S HX 97 BEAUFORT MCAS PTSUNNY 85 76 74 N5 29.94R HX 94 BEAUFORT ARPT PTSUNNY 82 77 83 CALM 29.93S HX 91 HILTON HEAD IS PTSUNNY 82 73 74 SE5 29.95S WALTERBORO PTSUNNY 86 75 70 NE3 29.95S HX 95 ALLENDALE PTSUNNY 82 75 78 CALM 29.94S ...SOUTHERN MIDLANDS AND PEE DEE... CITY SKY/WX TMP DP RH WIND PRES REMARKS GEORGETOWN NOT AVBL KINGSTREE NOT AVBL ORANGEBURG MOSUNNY 86 72 62 VRB7 29.95S HX 92 BARNWELL PTSUNNY 84 75 74 E6 29.96R HX 92 AIKEN FAIR 82 68 61 CALM 29.99S MANNING LGT RAIN 86 70 58 CALM 29.95S HX 90 COLUMBIA MOSUNNY 89 71 55 N5 29.94F HX 95 SUMTER SUNNY 88 69 54 NE7 29.93S HX 92 FLORENCE SUNNY 86 69 56 E9 29.95S HX 90 MYRTLE BEACH MOSUNNY 88 72 58 S8 29.97S HX 94 N MYRTLE BEACH SUNNY 87 72 60 VRB3 29.95S HX 93 $$ GAZ063-065-086>088-099>101-113>116-118-119-134>141-150-021600- ...SOUTHEAST GEORGIA... CITY SKY/WX TMP DP RH WIND PRES REMARKS SAVANNAH ARPT HVY RAIN 75 73 94 SE7 29.94R FOG HUNTER AAF LGT RAIN 77 77 100 NE2 29.91S FORT STEWART PTSUNNY 90 73 58 SE6 29.84S HX 98 STATESBORO CLOUDY 80 80 100 NE5 29.94S SYLVANIA CLOUDY 81 78 90 E6 29.95R CLAXTON NOT AVBL ...CSRA...CENTRAL AND FAR SOUTHEAST GEORGIA... CITY SKY/WX TMP DP RH WIND PRES REMARKS THOMSON MOSUNNY 86 76 71 NE8 29.99S HX 95 AUGUSTA-BUSH MOSUNNY 85 75 72 SE6 29.94R HX 93 AUGUSTA-DANIEL PTSUNNY 82 74 76 CALM 29.96S SWAINSBORO CLOUDY 84 79 84 E5 29.95S HX 96 VIDALIA CLOUDY 81 73 78 E6 29.94R EASTMAN CLOUDY 83 79 89 E6 29.96R HX 93 HAZLEHURST CLOUDY 82 76 83 E5 29.92S ALMA CLOUDY 79 73 82 E6 29.92R WAYCROSS CLOUDY 82 77 84 E5 29.92R HX 91 JESUP CLOUDY 84 75 74 SW3 29.93R HX 92 BAXLEY CLOUDY 79 73 83 E7 29.92S BRUNSWICK PTSUNNY 81 75 83 N3 29.93S SAINT SIMONS PTSUNNY 82 74 76 S7 29.91S $$ SCZ027-028-034-036>038-045-046-048>050-GAZ119-141-021600- ...LAKE AND SUPPLEMENTAL COASTAL OBSERVATIONS... STATION/POSITION TIME TEMP WIND PRES WAVE SWELL AIR SEA DIR/SP/G HT/PER HT/PER/DIR (UTC) (F) (DEG/KT/KT) (MB) (FT/S) (FT/S/D) UPR LAKE MARION NOT AVBL WINYAH BAY 1400 83 110/ 3 1013.0S LAKE MURRAY 1400 82 40/ 2/ 5 1013.5F ACE BASIN NERRS NOT AVBL FORT PULASKI 1500 77 86 330/ 4/ 5 1014.3R SAPELO ISLAND 1500 80 240/ 4 1013.0S $$ ANZ835-935-AMZ111-154-330-350-352-354-370-450-454-472-021600- ...C-MAN AND BUOY OBSERVATIONS... STATION/POSITION TIME TEMP WIND PRES WAVE SWELL AIR SEA DIR/SP/G HT/PER HT/PER/DIR (UTC) (F) (DEG/KT/KT) (MB) (FT/S) (FT/S/D) BUOY 41004 1450 74 83 90/ 10/ 16 1014.3R 4/ 7 3/ 7 BUOY 41008 1450 80 83 190/ 10/ 12 1013.3R 4/ 6 3/150/ 6 FOLLY BEACH CMAN 1500 82 160/ 6/ 6 1014.1R CAPERS NEARSHORE 1408 82 80/ 4/ 8 1014.0R FRIPP NEARSHORE 1400 80 220/ 8/ 10 1013.2R STATION/POSITION TIME TEMP WIND PRES WAVE SWELL AIR SEA DIR/SP/G HT/PER HT/PER/DIR (UTC) (F) (DEG/KT/KT) (MB) (FT/S) (FT/S/D) 5E ST. MARYS GA 1421 83 N/A 3/ 5 FRYING PAN BUOY 1450 83 83 CALM / 2 1014.9R 4/ 7 5/160/ 7 BUOY 41025 1450 82 86 270/ 2/ 4 1014.3R 3/ 7 3/170/ 7 CAPE LOOKOUT NC 1500 82 140/ 6/ 6 1014.0R BUOY 41002 1450 83 81 220/ 12/ 16 1016.5R 7/ 8 7/270/ 8 BUOY 41010 1420 83 84 180/ 10/ 12 1015.8R ST AUGUSTINE FL 1500 83 80 200/ 12/ 15 1014.0S $$

USA.gov is the U.S. government's official web portal to all federal, state and local government web resources and services.